Location: Unspecified
(47.4992°N, 121.7766°W)
Time: 13:47:54
(UTC-07:00)

Resurs 1-4 Rocket - Visible Passes

Search period start: 25 September 2018 00:00
Search period end: 05 October 2018 00:00
Orbit: 799 x 814 km, 98.5° (Epoch: 24 September)

Date Brightness Start Highest point End Pass type
(mag) Time Alt. Az. Time Alt. Az. Time Alt. Az.
25 Sep 3.7 02:58:11 10° NNE 03:01:01 32° NNE 03:01:01 32° NNE visible
25 Sep 3.6 04:38:55 10° NNW 04:42:06 21° NW 04:42:06 21° NW visible
26 Sep 4.2 02:33:47 10° NNE 02:36:02 24° NE 02:36:02 24° NE visible
26 Sep 3.4 04:13:52 10° N 04:17:06 28° NW 04:17:06 28° NW visible
27 Sep 4.6 02:09:36 10° NE 02:11:02 16° NE 02:11:02 16° NE visible
27 Sep 3.3 03:48:59 10° N 03:52:07 33° NNW 03:52:07 33° NNW visible
28 Sep 5.0 01:45:53 10° NE 01:46:03 11° NE 01:46:03 11° NE visible
28 Sep 3.5 03:24:16 10° NNE 03:27:08 33° N 03:27:08 33° N visible
28 Sep 4.0 05:05:57 10° NNW 05:08:12 14° NW 05:08:12 14° NW visible
29 Sep 3.9 02:59:41 10° NNE 03:02:08 28° NNE 03:02:08 28° NNE visible
29 Sep 3.8 04:40:28 10° NNW 04:43:12 20° NW 04:43:12 20° NW visible
30 Sep 4.3 02:35:16 10° NNE 02:37:09 21° NE 02:37:09 21° NE visible
30 Sep 3.6 04:15:23 10° N 04:18:13 25° NNW 04:18:13 25° NNW visible
01 Oct 4.7 02:11:05 10° NE 02:12:10 15° NE 02:12:10 15° NE visible
01 Oct 3.6 03:50:30 10° N 03:53:14 29° NNW 03:53:14 29° NNW visible
02 Oct 3.8 03:25:47 10° N 03:28:15 28° N 03:28:15 28° N visible
02 Oct 4.1 05:07:33 10° NNW 05:09:19 13° NW 05:09:19 13° NW visible
03 Oct 4.1 03:01:11 10° NNE 03:03:15 24° NNE 03:03:15 24° NNE visible
03 Oct 3.9 04:42:01 10° NNW 04:44:20 18° NW 04:44:20 18° NW visible
04 Oct 4.5 02:36:45 10° NNE 02:38:15 19° NE 02:38:15 19° NE visible
04 Oct 3.8 04:16:55 10° N 04:19:20 22° NNW 04:19:20 22° NNW visible
